Weather History for KRNT - February, 2012

Change the Weather History Date:

Friday, February 10, 2012

  Actual Average Record
Temperature  
Mean Temperature 50 °F -  
Max Temperature 55 °F 48 °F 55 °F (2006)
Min Temperature 44 °F 35 °F 28 °F (2011)
Degree Days  
Heating Degree Days 16    
Moisture  
Dew Point 45 °F    
Average Humidity 86    
Maximum Humidity 100    
Minimum Humidity 57    
Precipitation  
Precipitation 0.09 in - - ()
Sea Level Pressure  
Sea Level Pressure 30.01 in    
Wind  
Wind Speed 4 mph (ESE)    
Max Wind Speed 13 mph    
Max Gust Speed 20 mph    
Visibility 8 miles    
Events Rain    
Averages and records for this station are not official NWS values.
T = Trace of Precipitation, MM = Missing Value Source: NWS Daily Summary

Daily Weather History Graph

Daily Weather History Graph

Search for Another Location

Airport or City:

Trip Planner

Search our weather history database for the weather conditions in past years. The results will help you decide how hot, cold, wet, or windy it might be!

Date:

Astronomy

Feb. 10, 2012 Rise Set
Actual Time 7:22 AM PST 5:23 PM PST
Civil Twilight 6:50 AM PST 5:56 PM PST
Nautical Twilight 6:14 AM PST 6:32 PM PST
Astronomical Twilight 5:38 AM PST 7:08 PM PST
Moon 9:29 PM PST (2/10) 8:16 AM PST (2/10)
Length of Visible Light 11h 05m
Length of Day
10h 01m
Waning Gibbous, 89% of the Moon is Illuminated
Feb 10
Waning Gibbous
Feb 14
Last Quarter
Feb 21
New
Feb 29
First Quarter
Mar 8
Full

Hourly Weather History & Observations

Time (PST) Temp. Windchill Dew Point Humidity Pressure Visibility Wind Dir Wind Speed Gust Speed Precip Events Conditions
12:53 AM 44.1 °F 42.5 °F 44.1 °F 100% 30.04 in 10.0 mi NNW 3.5 mph - N/A   Clear
1:53 AM 45.0 °F 42.6 °F 44.1 °F 97% 30.02 in 10.0 mi NW 4.6 mph - N/A   Partly Cloudy
2:53 AM 45.0 °F 40.1 °F 44.1 °F 97% 30.00 in 10.0 mi WNW 9.2 mph - N/A   Mostly Cloudy
3:53 AM 45.0 °F - 43.0 °F 93% 30.02 in 10.0 mi Calm Calm - N/A   Overcast
4:53 AM 45.0 °F - 43.0 °F 93% 30.01 in 10.0 mi Calm Calm - 0.00 in   Overcast
5:53 AM 46.0 °F - 43.0 °F 89% 30.03 in 10.0 mi Calm Calm - N/A   Overcast
6:53 AM 45.0 °F - 43.0 °F 93% 30.01 in 10.0 mi Calm Calm - N/A   Overcast
7:53 AM 46.0 °F - 43.0 °F 89% 30.01 in 10.0 mi Calm Calm - N/A   Scattered Clouds
8:53 AM 46.0 °F - 43.0 °F 89% 30.03 in 10.0 mi Calm Calm - 0.00 in Rain Light Rain
9:53 AM 48.0 °F - 43.0 °F 83% 30.00 in 10.0 mi South 3.5 mph - 0.00 in   Mostly Cloudy
10:53 AM 48.0 °F - 44.1 °F 86% 29.99 in 10.0 mi NNW 6.9 mph - 0.00 in   Overcast
11:53 AM 50.0 °F - 45.0 °F 83% 29.97 in 10.0 mi NNW 5.8 mph - 0.00 in Rain Light Rain
12:53 PM 55.0 °F - 44.1 °F 67% 29.96 in 10.0 mi East 5.8 mph - 0.01 in Rain Light Rain
1:53 PM 55.9 °F - 43.0 °F 62% 29.94 in 10.0 mi East 11.5 mph 19.6 mph 0.00 in   Overcast
2:53 PM 55.9 °F - 43.0 °F 62% 29.94 in 10.0 mi East 12.7 mph 19.6 mph N/A   Mostly Cloudy
3:53 PM 55.0 °F - 42.1 °F 62% 29.94 in 10.0 mi East 8.1 mph - N/A   Overcast
4:53 PM 54.0 °F - 43.0 °F 66% 29.94 in 10.0 mi Calm Calm - N/A   Overcast
5:53 PM 55.0 °F - 39.9 °F 57% 29.96 in 10.0 mi Calm Calm - N/A   Overcast
6:41 PM 53.6 °F - 44.6 °F 72% 29.96 in 10.0 mi South 3.5 mph - 0.00 in Rain Light Rain
6:53 PM 53.1 °F - 48.0 °F 83% 29.98 in 9.0 mi SSW 4.6 mph - 0.00 in Rain Light Rain
7:22 PM 51.8 °F - 48.2 °F 88% 29.98 in 9.0 mi Variable 4.6 mph - 0.01 in Rain Light Rain
7:53 PM 50.0 °F - 46.0 °F 86% 30.01 in 10.0 mi Variable 5.8 mph - 0.02 in Rain Light Rain
8:24 PM 50.0 °F - 46.4 °F 87% 30.01 in 10.0 mi Variable 3.5 mph - 0.00 in Rain Light Rain
8:53 PM 48.0 °F - 45.0 °F 89% 30.04 in 6.0 mi SSE 4.6 mph - 0.00 in Rain Light Rain
9:10 PM 48.2 °F - 46.4 °F 93% 30.02 in 5.0 mi SE 5.8 mph - 0.00 in Rain Light Rain
9:20 PM 48.2 °F - 44.6 °F 87% 30.03 in 5.0 mi Variable 4.6 mph - 0.01 in Rain Light Rain
9:27 PM 48.2 °F - 44.6 °F 87% 30.03 in 5.0 mi SE 4.6 mph - 0.01 in Rain Light Rain
9:53 PM 46.9 °F - 45.0 °F 93% 30.05 in 9.0 mi East 4.6 mph - 0.01 in   Overcast
10:12 PM 46.4 °F 44.3 °F 44.6 °F 93% 30.04 in 7.0 mi East 4.6 mph - 0.00 in Rain Light Rain
10:19 PM 46.4 °F 45.2 °F 44.6 °F 93% 30.04 in 5.0 mi East 3.5 mph - 0.00 in Rain Light Rain
10:44 PM 46.4 °F 45.2 °F 46.4 °F 100% 30.05 in 2.5 mi East 3.5 mph - 0.02 in Rain Light Rain
10:53 PM 46.9 °F - 46.0 °F 97% 30.06 in 2.5 mi Calm Calm - 0.03 in Rain Light Rain
11:13 PM 46.4 °F - 46.4 °F 100% 30.05 in 3.0 mi Calm Calm - 0.03 in Rain Light Rain
11:37 PM 46.4 °F - 46.4 °F 100% 30.06 in 6.0 mi Calm Calm - 0.04 in Rain Light Rain
11:51 PM 46.4 °F - 46.4 °F 100% 30.07 in 10.0 mi Calm Calm - 0.04 in   Overcast
11:53 PM 46.9 °F - 46.0 °F 97% 30.08 in 10.0 mi Calm Calm - 0.04 in   Overcast